Date String (YYYY-MM-DD hh:mm:ss) UTC,Instrument flags,absolute air pressure of the measurement (hPa),sample flow rate (lpm),inlet stack bypass flow (lpm),air temperature of the measurement (°C),ambient temperature measured by the external sensor (°C),aerosol sample conditioner tube jacket temperature (°C),OPC LED temperature (°C),internal box temperature (°C),relative humidity of the measurement (%),span deviation,mass concentration of particles derived from Lorenz-Mie calculation of OPC scattering (μg/m³),mass concentration of particles derived from Lorenz-Mie calculation of OPC scattering (μg/m³),mass concentration of particles derived from Lorenz-Mie calculation of OPC scattering (μg/m³)
DateTimeUTC,F1_M11,P_M11,Q1_M11,Q2_M11,T1_M11,T2_M11,T3_M11,T4_M11,T5_M11,U1_M11,ZSPAN_M11,X2_M11,X0_M11,X1_M11
2023-12-15 15:00:00,SystemResetWarning,0835.5,5.00,000.00,018.8,017.9,000.0,027.2,020.0,15.4,0000.0,0001.64,0003.04,0001.42
2023-12-15 15:01:00,SystemResetWarning,0835.6,5.00,000.00,018.8,017.9,000.0,027.2,020.0,15.4,0000.0,0001.60,0002.98,0001.40
2023-12-15 15:02:00,SystemResetWarning,0835.5,5.00,000.00,018.8,017.9,000.0,027.1,020.0,15.4,0000.0,0001.57,0002.96,0001.39
2023-12-15 15:03:00,SystemResetWarning,0835.5,4.99,000.00,018.8,017.9,000.0,027.1,020.0,15.3,0000.0,0001.58,0003.09,0001.38
2023-12-15 15:04:00,SystemResetWarning,0835.6,5.00,000.00,018.8,017.9,000.0,027.1,020.0,15.5,0000.0,0001.59,0003.10,0001.38
2023-12-15 15:05:00,SystemResetWarning,0835.5,5.00,000.00,018.8,017.9,000.0,027.1,020.0,15.3,0000.0,0001.61,0003.18,0001.38
2023-12-15 15:06:00,SystemResetWarning,0835.6,5.01,000.00,018.8,017.9,000.0,027.1,020.0,15.3,0000.0,0001.62,0003.05,0001.38
2023-12-15 15:07:00,SystemResetWarning,0835.6,5.01,000.00,018.8,017.9,000.0,027.1,020.0,15.3,0000.0,0001.61,0002.98,0001.38
2023-12-15 15:08:00,SystemResetWarning,0835.6,5.01,000.00,018.8,017.9,000.0,027.1,020.0,15.4,0000.0,0001.61,0003.00,0001.38
2023-12-15 15:09:00,SystemResetWarning,0835.7,4.99,000.00,018.8,017.9,000.0,027.1,020.0,15.5,0000.0,0001.62,0002.76,0001.36
2023-12-15 15:10:00,SystemResetWarning,0835.7,4.99,000.00,018.8,017.9,000.0,027.1,020.0,16.0,0000.0,0001.61,0002.47,0001.34
2023-12-15 15:11:00,SystemResetWarning,0835.7,4.99,000.00,018.8,017.9,000.0,027.1,020.0,15.6,0000.0,0001.60,0002.46,0001.34
2023-12-15 15:12:00,SystemResetWarning,0835.7,4.99,000.00,018.8,017.8,000.0,027.1,020.0,15.3,0000.0,0001.60,0002.46,0001.34
2023-12-15 15:13:00,SystemResetWarning,0835.7,5.01,000.00,018.8,017.8,000.0,027.1,020.0,15.4,0000.0,0001.61,0002.43,0001.34
2023-12-15 15:14:00,SystemResetWarning,0835.8,5.00,000.00,018.8,017.8,000.0,027.1,020.0,15.5,0000.0,0001.59,0002.25,0001.35
2023-12-15 15:15:00,SystemResetWarning,0835.8,5.01,000.00,018.8,017.8,000.0,027.1,020.0,15.3,0000.0,0001.58,0002.23,0001.34
2023-12-15 15:16:00,SystemResetWarning,0835.8,5.00,000.00,018.8,017.8,000.0,027.1,020.0,15.0,0000.0,0001.54,0002.12,0001.33
2023-12-15 15:17:00,SystemResetWarning,0835.7,4.99,000.00,018.8,017.8,000.0,027.1,020.0,15.3,0000.0,0001.53,0002.08,0001.33
2023-12-15 15:18:00,SystemResetWarning,0835.7,4.99,000.00,018.8,017.8,000.0,027.1,020.0,15.2,0000.0,0001.51,0002.03,0001.31
2023-12-15 15:19:00,SystemResetWarning,0835.7,5.00,000.00,018.8,017.8,000.0,027.1,020.0,15.3,0000.0,0001.50,0001.97,0001.30
2023-12-15 15:20:00,SystemResetWarning,0835.7,5.01,000.00,018.8,017.8,000.0,027.1,020.0,15.4,0000.0,0001.48,0002.51,0001.30
2023-12-15 15:21:00,SystemResetWarning,0835.8,5.01,000.00,018.8,017.8,000.0,027.1,020.0,15.5,0000.0,0001.49,0003.41,0001.31
2023-12-15 15:22:00,SystemResetWarning,0835.8,4.99,000.00,018.8,017.8,000.0,027.1,020.0,15.5,0000.0,0001.49,0003.52,0001.30
2023-12-15 15:23:00,SystemResetWarning,0835.8,4.99,000.00,018.8,017.8,000.0,027.1,020.0,15.6,0000.0,0001.51,0004.36,0001.29
2023-12-15 15:24:00,SystemResetWarning,0835.8,4.99,000.00,018.8,017.8,000.0,027.1,020.0,15.7,0000.0,0001.52,0004.37,0001.29
2023-12-15 15:25:00,SystemResetWarning,0835.8,5.00,000.00,018.8,017.8,000.0,027.1,020.0,15.7,0000.0,0001.52,0005.13,0001.28
2023-12-15 15:26:00,SystemResetWarning,0835.8,5.01,000.00,018.8,017.8,000.0,027.1,020.0,15.8,0000.0,0001.54,0005.79,0001.29
2023-12-15 15:27:00,SystemResetWarning,0835.8,5.01,000.00,018.8,017.8,000.0,027.1,020.0,15.7,0000.0,0001.57,0005.82,0001.33
2023-12-15 15:28:00,SystemResetWarning,0835.8,5.01,000.00,018.8,017.8,000.0,027.1,020.0,15.7,0000.0,0001.62,0005.90,0001.36
2023-12-15 15:29:00,SystemResetWarning,0835.9,5.01,000.00,018.8,017.8,000.0,027.1,020.0,15.6,0000.0,0001.71,0006.08,0001.40
2023-12-15 15:30:00,SystemResetWarning,0835.9,4.99,000.00,018.8,017.8,000.0,027.1,020.0,15.6,0000.0,0001.76,0006.19,0001.45
2023-12-15 15:31:00,SystemResetWarning,0835.9,4.99,000.00,018.8,017.8,000.0,027.1,020.0,15.6,0000.0,0001.78,0005.60,0001.47
2023-12-15 15:32:00,SystemResetWarning,0835.9,4.99,000.00,018.8,017.8,000.0,027.1,020.0,15.6,0000.0,0001.79,0004.67,0001.50
2023-12-15 15:33:00,SystemResetWarning,0835.9,5.00,000.00,018.8,017.8,000.0,027.1,020.0,15.6,0000.0,0001.84,0004.69,0001.53
2023-12-15 15:34:00,SystemResetWarning,0836.0,5.00,000.00,018.8,017.9,000.0,027.1,020.0,15.7,0000.0,0001.87,0003.92,0001.56
2023-12-15 15:35:00,SystemResetWarning,0836.0,5.00,000.00,018.8,017.9,000.0,027.1,020.0,16.3,0000.0,0001.93,0004.05,0001.59
2023-12-15 15:36:00,SystemResetWarning,0836.1,5.00,000.00,018.8,017.9,000.0,027.1,020.0,15.6,0000.0,0001.98,0003.40,0001.62
2023-12-15 15:37:00,SystemResetWarning,0836.1,5.00,000.00,018.8,017.9,000.0,027.1,020.0,15.5,0000.0,0002.00,0002.79,0001.64
2023-12-15 15:38:00,SystemResetWarning,0836.1,5.00,000.00,018.8,017.9,000.0,027.1,020.0,15.4,0000.0,0002.03,0002.86,0001.64
2023-12-15 15:39:00,SystemResetWarning,0836.1,5.00,000.00,018.8,017.9,000.0,027.1,020.0,15.5,0000.0,0002.05,0002.92,0001.64
2023-12-15 15:40:00,SystemResetWarning,0836.1,5.00,000.00,018.8,017.9,000.0,027.1,020.0,15.5,0000.0,0002.00,0002.98,0001.63
2023-12-15 15:41:00,SystemResetWarning,0836.1,5.00,000.00,018.8,017.9,000.0,027.1,020.0,15.5,0000.0,0001.99,0003.34,0001.62
2023-12-15 15:42:00,SystemResetWarning,0836.1,5.01,000.00,018.8,017.9,000.0,027.1,020.0,15.6,0000.0,0001.99,0003.34,0001.62
2023-12-15 15:43:00,SystemResetWarning,0836.1,5.00,000.00,018.8,017.9,000.0,027.1,020.0,15.6,0000.0,0002.01,0003.42,0001.63
2023-12-15 15:44:00,SystemResetWarning,0836.1,5.00,000.00,018.8,018.0,000.0,027.1,020.0,15.6,0000.0,0002.00,0003.46,0001.63
2023-12-15 15:45:00,SystemResetWarning,0836.1,5.00,000.00,018.8,018.0,000.0,027.1,020.0,15.6,0000.0,0001.98,0003.40,0001.63
2023-12-15 15:46:00,SystemResetWarning,0836.1,5.00,000.00,018.8,018.0,000.0,027.1,020.0,16.2,0000.0,0001.96,0004.30,0001.64
2023-12-15 15:47:00,SystemResetWarning,0836.1,5.00,000.00,018.8,018.0,000.0,027.1,020.0,16.7,0000.0,0001.93,0004.72,0001.63
2023-12-15 15:48:00,SystemResetWarning,0836.1,5.00,000.00,018.8,018.0,000.0,027.1,020.1,16.3,0000.0,0001.95,0005.01,0001.63
2023-12-15 15:49:00,SystemResetWarning,0836.1,5.00,000.00,018.8,018.0,000.0,027.1,020.0,16.1,0000.0,0001.95,0005.13,0001.62
2023-12-15 15:50:00,SystemResetWarning,0836.1,5.00,000.00,018.8,018.0,000.0,027.1,020.0,15.6,0000.0,0001.95,0005.18,0001.61
2023-12-15 15:51:00,SystemResetWarning,0836.1,5.01,000.00,018.8,018.0,000.0,027.1,020.1,15.7,0000.0,0001.96,0005.21,0001.59
2023-12-15 15:52:00,SystemResetWarning,0836.1,5.00,000.00,018.8,018.0,000.0,027.1,020.0,15.4,0000.0,0001.94,0005.39,0001.58
2023-12-15 15:53:00,SystemResetWarning,0836.1,5.00,000.00,018.8,018.0,000.0,027.1,020.1,15.3,0000.0,0001.91,0005.64,0001.56
2023-12-15 15:54:00,SystemResetWarning,0836.1,4.99,000.00,018.8,018.0,000.0,027.1,020.1,15.3,0000.0,0001.88,0005.58,0001.53
2023-12-15 15:55:00,SystemResetWarning,0836.1,5.00,000.00,018.8,018.0,000.0,027.1,020.1,15.1,0000.0,0001.87,0005.67,0001.53
2023-12-15 15:56:00,SystemResetWarning,0836.1,5.01,000.00,018.8,018.0,000.0,027.1,020.1,14.6,0000.0,0001.87,0006.23,0001.54
2023-12-15 15:57:00,SystemResetWarning,0836.1,5.01,000.00,018.8,018.0,000.0,027.1,020.1,13.8,0000.0,0001.91,0005.67,0001.56
2023-12-15 15:58:00,SystemResetWarning,0836.2,5.01,000.00,018.8,018.0,000.0,027.1,020.2,13.6,0000.0,0001.91,0005.04,0001.57
2023-12-15 15:59:00,SystemResetWarning,0836.1,5.00,000.00,018.9,018.1,000.0,027.1,020.2,13.6,0000.0,0001.89,0004.84,0001.56
